Burns Flat, OK

5:23 AM CST on February 10, 2016 (GMT -0600)
Clinton-Sherman

Weather History for KCSM - October, 2013

Change the Weather History Date:

Monday, October 28, 2013

  Actual Average Record
Temperature  
Mean Temperature 60 °F -  
Max Temperature 68 °F 64 °F 80 °F (2004)
Min Temperature 51 °F 45 °F 30 °F (2012)
Degree Days  
Heating Degree Days 6    
Growing Degree Days 10 (Base 50)    
Moisture  
Dew Point 58 °F    
Average Humidity 96    
Maximum Humidity 100    
Minimum Humidity 84    
Precipitation  
Precipitation 0.00 in - - ()
Sea Level Pressure  
Sea Level Pressure 29.98 in    
Wind  
Wind Speed 16 mph (SSE)    
Max Wind Speed 28 mph    
Max Gust Speed 33 mph    
Visibility 3 miles    
Events Fog , Rain    
Averages and records for this station are not official NWS values.
T = Trace of Precipitation, MM = Missing Value Source: NWS Daily Summary

Daily Weather History Graph

Daily Weather History Graph

Search for Another Location

Airport or City:

Trip Planner

Search our weather history database for the weather conditions in past years. The results will help you decide how hot, cold, wet, or windy it might be!

Date:

Astronomy

Oct. 28, 2013 Rise Set
Actual Time 7:54 AM CDT 6:45 PM CDT
Civil Twilight 7:28 AM CDT 7:11 PM CDT
Nautical Twilight 6:58 AM CDT 7:41 PM CDT
Astronomical Twilight 6:29 AM CDT 8:11 PM CDT
Moon 2:01 AM CDT (10/28) 3:17 PM CDT (10/28)
Length of Visible Light 11h 43m
Length of Day
10h 50m
Waning Crescent, 34% of the Moon is Illuminated
Oct 28
Waning Crescent
Nov 3
New
Nov 9
First Quarter
Nov 17
Full
Nov 25
Last Quarter

Hourly Weather History & Observations

Time (CDT) Temp. Dew Point Humidity Pressure Visibility Wind Dir Wind Speed Gust Speed Precip Events Conditions
12:53 AM 54.0 °F 50.0 °F 86% 29.96 in 10.0 mi South 16.1 mph - N/A   Clear
1:53 AM 54.0 °F 52.0 °F 93% 29.95 in 8.0 mi South 15.0 mph - N/A   Clear
2:53 AM 53.1 °F 51.1 °F 93% 29.96 in 5.0 mi South 13.8 mph - N/A   Clear
3:44 AM 51.8 °F 51.8 °F 100% 29.98 in 4.0 mi South 12.7 mph - N/A   Partly Cloudy
3:53 AM 53.1 °F 52.0 °F 96% 29.95 in 3.0 mi South 13.8 mph - N/A   Scattered Clouds
3:57 AM 53.6 °F 51.8 °F 94% 29.98 in 2.5 mi South 15.0 mph - N/A   Mostly Cloudy
4:06 AM 53.6 °F 51.8 °F 94% 29.98 in 1.0 mi South 13.8 mph - N/A   Overcast
4:15 AM 53.6 °F 51.8 °F 94% 29.98 in 0.8 mi South 15.0 mph - N/A   Mist
4:44 AM 53.6 °F 53.6 °F 100% 29.98 in 1.0 mi South 16.1 mph - N/A   Mist
4:53 AM 53.1 °F 53.1 °F 100% 29.95 in 1.0 mi South 15.0 mph - N/A   Mist
5:35 AM 53.6 °F 53.6 °F 100% 29.98 in 0.5 mi South 16.1 mph - 0.00 in Fog , Rain Light Rain
5:53 AM 53.1 °F 53.1 °F 100% 29.95 in 0.5 mi South 16.1 mph - 0.00 in Fog , Rain Light Rain
6:07 AM 53.6 °F 53.6 °F 100% 29.99 in 0.5 mi South 19.6 mph - 0.00 in Fog , Rain Light Rain
6:53 AM 54.0 °F 54.0 °F 100% 29.97 in 0.2 mi South 19.6 mph - 0.00 in Fog , Rain Light Rain
7:53 AM 54.0 °F 54.0 °F 100% 29.99 in 0.2 mi South 15.0 mph - 0.00 in Fog Fog
8:53 AM 55.0 °F 55.0 °F 100% 30.01 in 0.2 mi South 16.1 mph - 0.00 in Fog , Rain Light Rain
9:42 AM 57.2 °F 57.2 °F 100% 30.05 in 0.2 mi SSE 12.7 mph - 0.00 in Fog , Rain Light Rain
9:53 AM 57.0 °F 57.0 °F 100% 30.03 in 0.2 mi SSE 13.8 mph - 0.00 in Fog Fog
10:53 AM 57.9 °F 57.9 °F 100% 30.04 in 0.2 mi South 17.3 mph - 0.00 in Fog Fog
11:04 AM 57.2 °F 57.2 °F 100% 30.06 in 0.2 mi South 16.1 mph - 0.00 in Fog , Rain Light Rain
11:18 AM 57.2 °F 57.2 °F 100% 30.06 in 0.2 mi South 19.6 mph - 0.00 in Fog , Rain Light Rain
11:53 AM 59.0 °F 59.0 °F 100% 30.04 in 0.5 mi South 16.1 mph - 0.00 in Fog Fog
12:21 PM 60.8 °F 60.8 °F 100% 30.05 in 1.0 mi SSE 13.8 mph - 0.00 in Rain Light Rain
12:53 PM 60.1 °F 60.1 °F 100% 30.02 in 1.2 mi SSE 15.0 mph - 0.00 in Rain Light Rain
1:33 PM 62.6 °F 60.8 °F 94% 30.02 in 2.0 mi SSE 17.3 mph - 0.00 in   Overcast
1:53 PM 62.1 °F 61.0 °F 96% 29.98 in 2.0 mi SSE 16.1 mph - 0.00 in   Overcast
2:53 PM 63.0 °F 62.1 °F 97% 29.96 in 3.0 mi SSE 17.3 mph - 0.00 in Rain Light Rain
3:01 PM 62.6 °F 62.6 °F 100% 29.98 in 2.5 mi SSE 16.1 mph - 0.00 in Rain Light Rain
3:53 PM 63.0 °F 62.1 °F 97% 29.94 in 2.0 mi SSE 18.4 mph - 0.00 in   Overcast
4:07 PM 64.4 °F 62.6 °F 94% 29.97 in 4.0 mi SSE 18.4 mph - N/A   Overcast
4:53 PM 64.0 °F 62.1 °F 93% 29.94 in 5.0 mi SE 12.7 mph - N/A   Overcast
5:53 PM 64.0 °F 62.1 °F 93% 29.93 in 6.0 mi SE 13.8 mph - N/A   Overcast
6:53 PM 63.0 °F 62.1 °F 97% 29.93 in 5.0 mi ESE 11.5 mph - N/A   Overcast
7:03 PM 62.6 °F 62.6 °F 100% 29.96 in 5.0 mi ESE 11.5 mph - N/A   Overcast
7:42 PM 64.4 °F 62.6 °F 94% 29.96 in 5.0 mi ESE 12.7 mph - N/A   Overcast
7:53 PM 64.0 °F 63.0 °F 96% 29.94 in 5.0 mi ESE 11.5 mph - N/A   Overcast
8:53 PM 64.9 °F 63.0 °F 93% 29.95 in 5.0 mi SE 10.4 mph - N/A   Overcast
9:02 PM 64.4 °F 62.6 °F 94% 29.99 in 7.0 mi SE 16.1 mph 20.7 mph N/A   Overcast
9:53 PM 68.0 °F 63.0 °F 84% 29.95 in 10.0 mi SSE 19.6 mph - N/A   Overcast
10:53 PM 66.0 °F 63.0 °F 90% 29.95 in 10.0 mi SSE 27.6 mph 33.4 mph N/A   Overcast
11:53 PM 64.9 °F 63.0 °F 93% 29.94 in 10.0 mi South 21.9 mph 31.1 mph N/A   Mostly Cloudy